[[{"header":{"parameterUnit":"m.s-1","parameterCategory":1,"la1":30.2991,"la2":30.254,"lo1":-89.0895,"lo2":-89.0444,"dy":0.0017,"dx":0.0017,"nx":28,"ny":28,"refTime":"2024-08-09T03:00:00:Z","depth":0,"parameterNumber":2,"parameterNumberName":"U-component_of_WINDS"},"data":[0,0,0,0,0,0,0,0,0,0,0,0,0,0,0,0,0,0,0,0,0,0,0,0,0,0,0,0,0,0,0,0,0,0,0,0,0,0,0,0,0,0,0,0,0,0,0,0,0,0,0,0,0,0,0,0,0,0,1.0723,1.0724,0,1.0824,1.0825,1.0826,1.0841,1.084,1.084,1.0839,1.0947,1.095,1.0954,0,0,0,0,0,0,0,0,0,0,0,0,0,1.0549,1.0552,1.0723,1.0725,1.0726,1.0824,1.0825,1.0826,1.0842,1.084,1.0839,1.0838,1.0945,1.095,1.0954,0,0,0,0,0,0,0,0,0,0,0,0,0,1.0635,1.0553,1.0723,1.0745,1.0748,1.0823,1.0825,1.0827,1.0842,1.084,1.0839,1.0838,1.0944,1.0949,1.0955,1.1017,0,0,1.0972,1.0974,0,0,0,0,0,0,0,0,1.063,1.0641,1.0741,1.0744,1.0747,1.0819,1.0803,1.0891,1.0842,1.0806,1.0839,1.0837,1.0905,1.0914,1.0936,1.1022,1.1027,1.0972,1.0976,1.0978,1.098,0,0,0,0,0,0,0,1.0624,1.0637,1.0763,1.0742,1.0746,1.0751,1.0762,1.082,1.0863,1.0809,1.0811,1.0822,1.0907,1.0931,1.0939,1.1028,1.0972,1.0977,1.0981,1.0983,1.1171,1.1172,0,0,0,0,0,0,1.0613,1.0632,1.076,1.0766,1.0684,1.0756,1.0768,1.0797,1.0862,1.087,1.0823,1.0822,1.0922,1.0932,1.0943,1.102,1.0978,1.0983,1.0987,1.1169,1.1171,1.1173,0,0,0,0,0,0,1.061,1.0625,1.0756,1.0699,1.0717,1.076,1.0793,1.08,1.0823,1.0872,1.088,1.0839,1.0921,1.0935,1.0998,1.1024,1.0986,1.0991,1.1167,1.117,1.1172,1.1174,0,0,0,0,0,0,1.0605,1.0623,1.0646,1.07,1.0719,1.0808,1.0795,1.0803,1.0832,1.0832,1.0889,1.0898,1.0921,1.099,1.1004,1.1031,1.0995,1.1165,1.1168,1.1171,1.1172,1.1177,1.118,0,0,0,0,0,1.0598,1.0644,1.0647,1.0663,1.0749,1.081,1.0821,1.0846,1.0834,1.0859,1.089,1.0896,1.1018,1.0996,1.1012,1.1041,1.1163,1.1167,1.1171,1.117,1.1176,1.118,0,0,0,0,0,0,1.0594,1.0651,1.0656,1.072,1.0759,1.0812,1.0843,1.0851,1.0896,1.0894,1.0924,1.0937,1.0999,1.1026,1.1,1.1105,1.109,1.1097,1.1084,1.109,1.1094,1.1086,1.1,0,0,0,0,0,1.06,1.0643,1.0692,1.0743,1.0763,1.08,1.0827,1.0842,1.0886,1.0903,1.0939,1.0982,1.103,1.1062,1.1109,1.1176,1.1189,1.1204,1.1208,1.1211,1.1217,1.1255,1.1263,1.1185,1.1185,1.1185,0,0,1.0614,1.065,1.0676,1.0743,1.0776,1.0821,1.0814,1.0862,1.0897,1.0911,1.0972,1.1001,1.1051,1.1116,1.1147,1.1141,1.1242,1.1216,1.1218,1.1223,1.126,1.1267,1.1274,1.1187,1.1187,1.1186,0,0,1.0662,1.0693,1.074,1.0773,1.0822,1.0846,1.0857,1.0909,1.0927,1.0989,1.1001,1.1043,1.1125,1.1161,1.1189,1.1251,1.1258,1.1265,1.1287,1.1324,1.133,1.1336,1.1358,1.1365,1.1271,1.1271,1.1271,0,1.0673,1.074,1.0764,1.0811,1.0841,1.0854,1.0903,1.0934,1.0997,1.1017,1.1009,1.1113,1.1148,1.1222,1.1237,1.1259,1.1274,1.1259,1.1327,1.1333,1.1338,1.136,1.1368,1.1272,1.1272,1.1272,1.1271,0,1.0752,1.0799,1.0831,1.0889,1.0922,1.097,1.1002,1.1034,1.1046,1.1071,1.1135,1.1177,1.1233,1.1251,1.1265,1.1328,1.1323,1.132,1.1306,1.1346,1.1367,1.1375,1.1272,1.1272,1.1272,1.1272,0,0,1.0801,1.087,1.0882,1.0909,1.0964,1.1001,1.105,1.1103,1.1129,1.1172,1.1215,1.1284,1.1282,1.1315,1.1332,1.1365,1.1411,1.1359,1.136,1.1367,1.1484,1.1485,1.1494,1.1416,1.1418,1.1419,1.148,0,1.0855,1.0941,1.0964,1.1037,1.1081,1.1095,1.1137,1.1177,1.1202,1.1244,1.1272,1.1321,1.1314,1.1334,1.1366,1.1398,1.1435,1.1394,1.1457,1.1459,1.1444,1.1505,1.1507,1.1562,1.1488,1.1489,1.149,0,1.0931,1.0973,1.1051,1.11,1.1119,1.1157,1.1208,1.1247,1.1293,1.1309,1.1345,1.1359,1.1412,1.1395,1.1469,1.1441,1.1468,1.1487,1.149,1.1498,1.1477,1.1514,1.158,1.1589,1.1503,1.1502,1.1501,0,1.0959,1.1036,1.1092,1.1115,1.1173,1.12,1.1226,1.1269,1.13,1.1345,1.1365,1.1416,1.1444,1.1484,1.1512,1.1496,1.1584,1.1569,1.16,1.1599,1.1618,1.1616,1.1689,1.1635,1.1634,1.1634,1.1634,0,1.1018,1.1065,1.1105,1.114,1.1193,1.122,1.1272,1.1299,1.1338,1.1379,1.1394,1.1433,1.1467,1.1511,1.1534,1.1592,1.1605,1.162,1.1626,1.1619,1.1617,1.1638,1.1635,1.1637,1.1636,1.1636,1.1635,0,1.1059,1.1087,1.1149,1.12,1.1213,1.1251,1.1294,1.1329,1.1354,1.1406,1.142,1.1461,1.1513,1.1545,1.1611,1.1627,1.1691,1.1695,1.1675,1.1678,1.1707,1.1704,1.1796,1.181,1.1745,1.1746,1.1746,0,1.1094,1.1131,1.1184,1.1212,1.1238,1.1283,1.1314,1.1341,1.1373,1.1427,1.1455,1.1508,1.1552,1.1635,1.1671,1.1723,1.1728,1.1757,1.1736,1.1728,1.1729,1.1727,1.1731,1.1761,1.1761,1.1762,1.1762,0,1.1155,1.1168,1.1211,1.1259,1.1294,1.1334,1.1374,1.1396,1.143,1.1465,1.1518,1.1552,1.1619,1.1672,1.1726,1.1755,1.1765,1.1768,1.1778,1.1772,1.1759,1.1767,1.1685,1.1766,1.1766,1.1765,1.1765,1.1765,1.1195,1.1228,1.1271,1.1318,1.135,1.1387,1.1422,1.1451,1.1495,1.1551,1.1565,1.162,1.1665,1.1739,1.1768,1.1813,1.1809,1.1823,1.1827,1.183,1.1831,1.1751,1.1823,1.1823,1.1823,1.1823,1.1823,0,1.1257,1.1285,1.1328,1.1382,1.142,1.1424,1.1468,1.15,1.1548,1.1588,1.163,1.1691,1.1742,1.1782,1.1835,1.1863,1.1869,1.1876,1.1875,1.1881,1.1832,1.1818,1.187,1.187,1.187,1.187,1.187,1.187,1.1294,1.135,1.1367,1.144,1.1468,1.1521,1.1546,1.158,1.1612,1.1679,1.1721,1.1745,1.1786,1.1842,1.1889,1.19,1.1919,1.1925,1.1937,1.189,1.1885,1.188,1.1867,1.1929,1.1929,1.1983,1.1983,1.1983]},{"header":{"parameterUnit":"m.s-1","parameterCategory":1,"la1":30.2991,"la2":30.254,"lo1":-89.0895,"lo2":-89.0444,"dy":0.0017,"dx":0.0017,"nx":28,"ny":28,"refTime":"2024-08-09T03:00:00:Z","depth":0,"parameterNumber":3,"parameterNumberName":"V-component_of_WINDS"},"data":[0,0,0,0,0,0,0,0,0,0,0,0,0,0,0,0,0,0,0,0,0,0,0,0,0,0,0,0,0,0,0,0,0,0,0,0,0,0,0,0,0,0,0,0,0,0,0,0,0,0,0,0,0,0,0,0,0,0,-0.5282,-0.5282,0,-0.5235,-0.5235,-0.5234,-0.5245,-0.5245,-0.5246,-0.5247,-0.5197,-0.5195,-0.5193,0,0,0,0,0,0,0,0,0,0,0,0,0,-0.5383,-0.5381,-0.5282,-0.5282,-0.5281,-0.5235,-0.5235,-0.5234,-0.5244,-0.5245,-0.5247,-0.5248,-0.5198,-0.5195,-0.5193,0,0,0,0,0,0,0,0,0,0,0,0,0,-0.5338,-0.5381,-0.5282,-0.5281,-0.528,-0.5235,-0.5235,-0.5234,-0.5244,-0.5246,-0.5247,-0.5248,-0.5199,-0.5196,-0.5192,-0.5146,0,0,-0.5183,-0.5181,0,0,0,0,0,0,0,0,-0.5341,-0.5334,-0.5282,-0.5281,-0.528,-0.5247,-0.5252,-0.5204,-0.5244,-0.5258,-0.5247,-0.5249,-0.5213,-0.5208,-0.5197,-0.5143,-0.5141,-0.5182,-0.518,-0.5179,-0.5178,0,0,0,0,0,0,0,-0.5344,-0.5336,-0.5264,-0.5281,-0.528,-0.5283,-0.5278,-0.5243,-0.5228,-0.5257,-0.5257,-0.5252,-0.5212,-0.52,-0.5195,-0.514,-0.5182,-0.5179,-0.5177,-0.5176,-0.5052,-0.5051,0,0,0,0,0,0,-0.5347,-0.5339,-0.5265,-0.5262,-0.5314,-0.528,-0.5275,-0.5256,-0.5229,-0.5226,-0.5251,-0.5252,-0.5204,-0.5199,-0.5194,-0.5141,-0.5179,-0.5176,-0.5174,-0.5053,-0.5052,-0.505,0,0,0,0,0,0,-0.535,-0.5341,-0.5267,-0.5301,-0.5292,-0.5277,-0.5256,-0.5255,-0.5242,-0.5224,-0.5222,-0.524,-0.5205,-0.5198,-0.5159,-0.5139,-0.5174,-0.5171,-0.5055,-0.5053,-0.5051,-0.5032,0,0,0,0,0,0,-0.5352,-0.5341,-0.5323,-0.53,-0.529,-0.5232,-0.5255,-0.5253,-0.5237,-0.5238,-0.5214,-0.5211,-0.5206,-0.5164,-0.5156,-0.5135,-0.5169,-0.5057,-0.5054,-0.5052,-0.5035,-0.503,-0.5026,0,0,0,0,0,-0.5356,-0.5318,-0.5322,-0.5313,-0.5266,-0.5231,-0.5225,-0.5221,-0.5235,-0.5217,-0.5206,-0.5212,-0.5142,-0.516,-0.5151,-0.5129,-0.5058,-0.5055,-0.5052,-0.5037,-0.5031,-0.5026,0,0,0,0,0,0,-0.5336,-0.5315,-0.5319,-0.5272,-0.5254,-0.5233,-0.521,-0.5214,-0.519,-0.5193,-0.5188,-0.5183,-0.5144,-0.5132,-0.5151,-0.5085,-0.5102,-0.5097,-0.5094,-0.5088,-0.5084,-0.5088,-0.5166,0,0,0,0,0,-0.5327,-0.53,-0.5283,-0.5243,-0.5234,-0.5224,-0.5208,-0.5207,-0.5187,-0.5179,-0.5165,-0.5146,-0.5121,-0.5103,-0.5078,-0.5033,-0.503,-0.5014,-0.501,-0.5006,-0.5002,-0.4982,-0.4976,-0.504,-0.504,-0.504,0,0,-0.5306,-0.5291,-0.5274,-0.5239,-0.5225,-0.5199,-0.5217,-0.5187,-0.5168,-0.5174,-0.5138,-0.5127,-0.5105,-0.5064,-0.5045,-0.5053,-0.4984,-0.5002,-0.5,-0.4998,-0.4978,-0.4972,-0.4967,-0.5038,-0.5039,-0.5039,0,0,-0.5256,-0.5241,-0.5209,-0.5195,-0.5174,-0.5168,-0.5161,-0.514,-0.5134,-0.5097,-0.5103,-0.5081,-0.5035,-0.5021,-0.5008,-0.4958,-0.4964,-0.495,-0.4927,-0.4908,-0.4903,-0.4898,-0.4883,-0.4878,-0.4946,-0.4946,-0.4946,0,-0.5233,-0.5194,-0.5191,-0.5163,-0.5149,-0.5156,-0.5125,-0.5111,-0.5082,-0.5073,-0.5082,-0.503,-0.5015,-0.4973,-0.4961,-0.4949,-0.4942,-0.4953,-0.4903,-0.4899,-0.4895,-0.4881,-0.4875,-0.4945,-0.4945,-0.4945,-0.4945,0,-0.5169,-0.5142,-0.5119,-0.5094,-0.5077,-0.5047,-0.5041,-0.5024,-0.5026,-0.5019,-0.4984,-0.4967,-0.4942,-0.4931,-0.493,-0.489,-0.4896,-0.4905,-0.4922,-0.4887,-0.4874,-0.4869,-0.4943,-0.4943,-0.4944,-0.4944,0,0,-0.5103,-0.5081,-0.5072,-0.5063,-0.5043,-0.5022,-0.4994,-0.497,-0.4957,-0.4938,-0.4916,-0.488,-0.4889,-0.4875,-0.4873,-0.4855,-0.4822,-0.4866,-0.4866,-0.4861,-0.478,-0.4775,-0.4769,-0.4825,-0.4824,-0.4823,-0.4783,0,-0.5054,-0.5005,-0.5004,-0.496,-0.4937,-0.4945,-0.4921,-0.4907,-0.4901,-0.4881,-0.4874,-0.485,-0.4862,-0.4854,-0.4837,-0.4829,-0.4805,-0.4832,-0.4806,-0.4805,-0.4813,-0.4761,-0.4755,-0.4717,-0.4777,-0.4776,-0.4775,0,-0.4989,-0.4971,-0.4925,-0.4913,-0.4903,-0.4881,-0.4862,-0.4842,-0.4827,-0.4824,-0.481,-0.4813,-0.4786,-0.4804,-0.4769,-0.4787,-0.4776,-0.4771,-0.477,-0.4768,-0.4789,-0.4761,-0.4705,-0.47,-0.4767,-0.4767,-0.4768,0,-0.495,-0.4914,-0.4883,-0.4875,-0.4858,-0.4843,-0.4835,-0.4822,-0.4809,-0.4792,-0.4784,-0.4764,-0.4753,-0.4737,-0.4735,-0.4748,-0.4701,-0.4718,-0.4699,-0.4699,-0.4689,-0.469,-0.4634,-0.4679,-0.4679,-0.4679,-0.468,0,-0.4896,-0.4869,-0.4867,-0.4847,-0.4818,-0.4818,-0.4789,-0.4782,-0.4771,-0.4752,-0.4756,-0.4739,-0.4736,-0.4718,-0.4715,-0.4688,-0.4682,-0.4681,-0.4681,-0.4681,-0.4682,-0.4675,-0.4679,-0.4678,-0.4678,-0.4679,-0.4679,0,-0.4848,-0.4845,-0.4812,-0.4801,-0.4797,-0.4776,-0.4766,-0.4749,-0.4745,-0.4722,-0.4716,-0.4709,-0.4689,-0.4685,-0.466,-0.4659,-0.4627,-0.4629,-0.4633,-0.4634,-0.4617,-0.4619,-0.4555,-0.4548,-0.4596,-0.4596,-0.4595,0,-0.4814,-0.4794,-0.4781,-0.477,-0.4762,-0.4743,-0.4731,-0.4731,-0.4719,-0.4703,-0.4688,-0.4668,-0.4653,-0.462,-0.4613,-0.4595,-0.4598,-0.4577,-0.4595,-0.4597,-0.4601,-0.4603,-0.4602,-0.4573,-0.4573,-0.4572,-0.4572,0,-0.4757,-0.4758,-0.4741,-0.4725,-0.4711,-0.4698,-0.4685,-0.4676,-0.4674,-0.466,-0.4641,-0.4629,-0.4605,-0.4587,-0.4569,-0.4562,-0.4568,-0.4567,-0.4562,-0.4563,-0.4567,-0.4567,-0.4626,-0.4568,-0.4568,-0.4569,-0.4569,-0.4569,-0.4717,-0.4701,-0.4691,-0.4673,-0.4665,-0.4654,-0.4639,-0.4634,-0.4618,-0.46,-0.4601,-0.458,-0.4569,-0.4547,-0.4538,-0.4523,-0.4529,-0.4522,-0.452,-0.4519,-0.4519,-0.4569,-0.4519,-0.4519,-0.4519,-0.4519,-0.452,0,-0.4662,-0.4657,-0.4641,-0.4625,-0.4612,-0.462,-0.4607,-0.4596,-0.4578,-0.4567,-0.4553,-0.4532,-0.4515,-0.4509,-0.4492,-0.4481,-0.4484,-0.4477,-0.4479,-0.4478,-0.4512,-0.4519,-0.4476,-0.4476,-0.4476,-0.4476,-0.4476,-0.4476,-0.4633,-0.4607,-0.4607,-0.4579,-0.4574,-0.4555,-0.4547,-0.4538,-0.4531,-0.4508,-0.4494,-0.4491,-0.4483,-0.4466,-0.4452,-0.4451,-0.4445,-0.4438,-0.4438,-0.447,-0.4475,-0.4479,-0.4486,-0.4437,-0.4436,-0.4406,-0.4405,-0.4405]}]]